Location: Marshall
(39.8477°N, 87.1868°W)
Time: 04:25:30
(UTC+00:00)

HTV-X1 - Pass Details

Date: 21 May 2026
Orbit: 368 x 378 km, 51.6° (Epoch: 26 May)

Event Time Altitude Azimuth Distance (km) Brightness Sun altitude
Rises 03:27:02 0° 313° (NW) 2,219 ? -21.9°
Reaches altitude 10° 03:29:12 10° 324° (NW) 1,369 ? -22.1°
Enters shadow 03:31:34 31° 11° (N) 686 ? -22.4°
